Location: Newark
(34.1333°N, 7.9667°W)
Time: 11:28:25
(UTC+00:00)

Vanguard 2 Rocket - Pass Details

Date: 06 August 2021
Orbit: 556 x 3324 km, 32.9° (Epoch: 21 September)

Event Time Altitude Azimuth Distance (km) Brightness Sun altitude
Exits shadow 03:07:46 14° 151° (SSE) 2,845 9.2 -27.9°
Drops below altitude 10° 03:10:42 10° 125° (SE) 2,842 9.5 -27.5°
Sets 03:14:12 0° 100° (E) 3,411 10.3 -27.0°
